Change the Weather History Date:

Thursday, May 17, 2012

  Actual Average Record
Temperature  
Mean Temperature 64 °F 63 °F  
Max Temperature 77 °F 74 °F 85 °F (2013)
Min Temperature 51 °F 53 °F 43 °F (2007)
Degree Days  
Heating Degree Days 1 4  
Month to date heating degree days 19 97  
Since 1 July heating degree days 4137 5357  
Cooling Degree Days 0 2  
Month to date cooling degree days 72 23  
Year to date cooling degree days 127 36  
Growing Degree Days 13 (Base 50)    
Moisture  
Dew Point 36 °F    
Average Humidity 42    
Maximum Humidity 63    
Minimum Humidity 21    
Precipitation  
Precipitation 0.00 in 0.18 in 0.98 in (1999)
Month to date precipitation 2.15 3.11  
Year to date precipitation 12.41 15.61  
Sea Level Pressure  
Sea Level Pressure 30.07 in    
Wind  
Wind Speed 9 mph (East)    
Max Wind Speed 20 mph    
Max Gust Speed 24 mph    
Visibility 10 miles    
Events      
T = Trace of Precipitation, MM = Missing Value Source: NWS Daily Summary

Daily Weather History Graph

Daily Weather History Graph

Search for Another Location

Airport or City:

Trip Planner

Search our weather history database for the weather conditions in past years. The results will help you decide how hot, cold, wet, or windy it might be!

Date:

Astronomy

May. 17, 2012 Rise Set
Actual Time 6:26 AM EDT 8:52 PM EDT
Civil Twilight 5:56 AM EDT 9:23 PM EDT
Nautical Twilight 5:18 AM EDT 10:01 PM EDT
Astronomical Twilight 4:36 AM EDT 10:43 PM EDT
Moon 4:24 AM EDT (5/17) 6:05 PM EDT (5/17)
Length of Visible Light 15h 27m
Length of Day
14h 26m
Waning Crescent, 10% of the Moon is Illuminated
May 17
Waning Crescent
May 20
New
May 28
First Quarter
Jun 4
Full
Jun 11
Last Quarter

Hourly Weather History & Observations

Time (EDT) Temp. Dew Point Humidity Pressure Visibility Wind Dir Wind Speed Gust Speed Precip Events Conditions
12:53 AM 60.1 °F 35.1 °F 39% 30.04 in 10.0 mi NNE 8.1 mph - N/A   Clear
1:53 AM 59.0 °F 35.1 °F 41% 30.05 in 10.0 mi NE 8.1 mph - N/A   Clear
2:53 AM 55.9 °F 37.0 °F 49% 30.05 in 10.0 mi ENE 9.2 mph - N/A   Clear
3:53 AM 54.0 °F 37.9 °F 55% 30.05 in 10.0 mi East 8.1 mph - N/A   Clear
4:53 AM 53.1 °F 39.0 °F 59% 30.07 in 10.0 mi East 6.9 mph - N/A   Clear
5:53 AM 51.1 °F 39.0 °F 63% 30.09 in 10.0 mi East 5.8 mph - N/A   Clear
6:53 AM 51.1 °F 39.0 °F 63% 30.11 in 10.0 mi East 8.1 mph - N/A   Clear
7:53 AM 55.0 °F 37.9 °F 53% 30.12 in 10.0 mi East 10.4 mph - N/A   Clear
8:53 AM 59.0 °F 37.0 °F 44% 30.13 in 10.0 mi East 12.7 mph - N/A   Clear
9:53 AM 63.0 °F 36.0 °F 37% 30.13 in 10.0 mi East 13.8 mph - N/A   Clear
10:53 AM 64.9 °F 36.0 °F 34% 30.13 in 10.0 mi East 15.0 mph - N/A   Clear
11:53 AM 66.9 °F 35.1 °F 31% 30.12 in 10.0 mi East 10.4 mph 24.2 mph N/A   Clear
12:53 PM 71.1 °F 35.1 °F 27% 30.11 in 10.0 mi East 12.7 mph - N/A   Clear
1:53 PM 72.0 °F 33.1 °F 24% 30.09 in 10.0 mi East 13.8 mph 19.6 mph N/A   Clear
2:53 PM 73.9 °F 32.0 °F 21% 30.07 in 10.0 mi ENE 8.1 mph 20.7 mph N/A   Clear
3:53 PM 75.9 °F 33.1 °F 21% 30.06 in 10.0 mi East 11.5 mph 18.4 mph N/A   Clear
4:53 PM 75.9 °F 33.1 °F 21% 30.05 in 10.0 mi East 10.4 mph - N/A   Clear
5:53 PM 75.9 °F 32.0 °F 20% 30.04 in 10.0 mi East 10.4 mph - N/A   Clear
6:53 PM 75.0 °F 32.0 °F 21% 30.04 in 10.0 mi East 9.2 mph - N/A   Clear
7:53 PM 73.9 °F 32.0 °F 21% 30.04 in 10.0 mi East 10.4 mph - N/A   Clear
8:53 PM 66.9 °F 36.0 °F 32% 30.04 in 10.0 mi East 4.6 mph - N/A   Clear
9:53 PM 61.0 °F 37.9 °F 42% 30.04 in 10.0 mi ESE 5.8 mph - N/A   Clear
10:53 PM 59.0 °F 39.0 °F 48% 30.06 in 10.0 mi ESE 4.6 mph - N/A   Clear
11:53 PM 55.9 °F 39.9 °F 55% 30.06 in 10.0 mi ESE 4.6 mph - N/A   Clear